Location: Platte
(43.3870°N, 98.8440°W)
Time: 11:48:59
(UTC-05:00)

Daily predictions for brighter satellites

Satellite Brightness Start Highest point End
(mag) Time Altitude Azimuth Time Altitude Azimuth Time Altitude Azimuth
DELTA 2 R/B (1) 4.1 21:46:57 10° W 21:52:14 46° SSW 21:57:30 10° SE
CZ-4 SHROUD 4.1 21:52:10 10° SE 21:55:02 34° ENE 21:57:55 10° N
Cosmos 2058 4.0 21:53:25 10° SSE 21:56:51 27° E 22:00:20 10° NNE
Cosmos 1151 Rocket 3.0 21:54:58 10° N 21:59:17 75° E 22:03:37 10° SSE
Cosmos 405 3.0 21:57:27 10° N 22:01:06 85° E 22:04:43 10° S
SL-12 R/B (AUX MOTOR) 4.1 22:00:14 10° WSW 22:02:13 72° NNW 22:03:37 10° ENE
Cosmos 1674 2.7 21:59:02 10° S 22:02:52 78° E 22:06:45 10° N
ALOS 4.4 22:04:33 10° SSW 22:08:23 25° W 22:12:15 10° NW
Cosmos 2266 Rocket 4.0 22:04:16 10° S 22:10:33 85° E 22:16:47 10° N
CZ-4B R/B 4.2 22:06:19 10° NNE 22:11:11 36° E 22:15:57 10° SSE
Cosmos 1805 Rocket 4.2 22:07:30 10° SSE 22:11:39 39° E 22:15:48 10° NNE
H-2A R/B 3.7 22:08:41 10° ESE 22:12:37 21° ENE 22:16:35 10° NNE
Cosmos 1680 Rocket 3.6 22:08:33 10° NNW 22:13:50 87° WSW 22:19:06 10° SSE
Tiangong 1 2.2 22:11:37 10° SSW 22:14:10 23° SSE 22:16:42 10° E
Cosmos 2227 Rocket 3.9 22:11:33 10° SE 22:14:30 15° E 22:17:28 10° ENE
Cosmos 1300 3.4 22:10:59 10° N 22:14:36 37° ENE 22:17:52 12° SE
Cosmos 2315 Rocket 4.1 22:09:07 10° N 22:15:18 65° E 22:21:26 10° SSE
YAOGAN 6 3.1 22:12:45 10° SE 22:16:09 44° ENE 22:19:36 10° N
Cosmos 923 Rocket 4.4 22:13:15 10° NNW 22:18:24 61° WSW 22:23:30 10° S
SPOT 1/Viking Rocket 3.8 22:19:48 11° SSE 22:24:37 55° ENE 22:29:39 10° N
Cosmos 2333 Rocket 3.4 22:21:28 10° N 22:26:30 30° NE 22:31:18 11° ESE
SL-16 R/B 4.4 22:23:33 10° N 22:26:34 14° NE 22:29:35 10° ENE
Cosmos 1939 Rocket 3.9 22:23:06 10° S 22:26:52 43° W 22:30:36 10° NNW
Cosmos 1437 Rocket 4.4 22:24:23 10° NNW 22:27:46 31° W 22:31:11 10° SSW
Cosmos 1898 Rocket 4.0 22:23:11 10° S 22:27:58 39° ESE 22:32:47 10° NE
DELTA 2 R/B(2) 4.3 22:26:43 10° SW 22:28:15 27° SSE 22:29:21 18° ESE
H-2A R/B 3.2 22:24:07 10° S 22:28:27 44° W 22:32:47 10° NNW
Cosmos 1707 Rocket 3.7 22:24:52 10° N 22:29:11 59° E 22:32:56 13° SSE
USA 229 DEB 4.4 22:23:00 10° SW 22:29:49 59° NW 22:36:47 10° NNE
USA 229 4.4 22:23:05 10° SW 22:29:55 60° NW 22:36:53 10° NNE
Cosmos 1666 Rocket 3.8 22:29:56 10° SSE 22:34:10 50° E 22:38:28 10° NNE
Cosmos 2150 Rocket 4.4 22:30:11 10° S 22:35:22 48° ESE 22:40:37 10° NNE
PSLV R/B 3.7 22:33:00 10° S 22:36:00 54° W 22:39:00 10° NNW
Cosmos 1455 4.1 22:34:27 10° NNE 22:37:00 17° ENE 22:38:49 13° ESE
SPOT 5 3.2 22:33:04 10° S 22:37:35 62° W 22:42:24 10° NNW
COSMOS 2428 2.7 22:32:51 10° NNW 22:38:34 86° ENE 22:43:18 15° SSE
MetOp-A 4.3 22:33:27 10° S 22:38:48 79° WSW 22:44:11 10° NNW
Cosmos 2297 Rocket 3.7 22:39:29 15° ESE 22:41:26 17° E 22:44:58 10° ENE
ARGOS 3.2 22:41:02 15° SSE 22:45:34 72° ENE 22:50:58 10° N
Cosmos 2219 Rocket 2.6 22:41:04 10° NNW 22:46:33 52° ENE 22:50:35 18° SE
NOSS 3-1 (A) 3.4 22:43:23 10° SSW 22:49:09 61° ESE 22:55:34 10° NE
Cosmos 1745 Rocket 4.3 22:47:12 15° SSE 22:52:06 47° E 22:57:59 10° NNE
Cosmos 1726 2.1 22:51:45 10° N 22:55:33 87° WSW 22:58:06 20° S
NOSS 0 Rocket 4.1 22:55:00 10° NNW 23:01:07 63° ENE 23:05:19 21° SE
CZ-4C R/B 3.2 22:59:54 27° SE 23:01:35 57° ENE 23:05:00 10° N
ERBS 3.5 23:05:21 25° ESE 23:05:21 25° ESE 23:07:45 10° ENE
Cosmos 1980 4.1 23:00:05 10° NNW 23:05:37 53° ENE 23:09:10 22° SE
USA 32 4.0 23:00:45 10° N 23:06:03 78° E 23:09:42 20° S
Cosmos 292 Rocket 3.7 23:01:39 10° NNW 23:06:27 84° ENE 23:09:18 24° SSE
Landsat 7 3.8 23:05:56 23° SSE 23:08:53 72° ENE 23:13:39 10° N
Delta 2 Rocket 4.3 23:06:32 10° WSW 23:09:00 21° SSW 23:09:00 21° SSW
ATLAS 2AS CENTAUR R/B 3.4 23:05:37 13° S 23:11:40 41° ESE 23:18:59 10° NE
Cosmos 2219 4.1 23:06:40 10° SW 23:12:16 53° WNW 23:17:54 10° NNE
Cosmos 1271 Rocket 2.7 23:09:27 10° NNW 23:13:18 83° W 23:15:19 27° S
Cosmos 1346 3.5 23:17:15 41° ESE 23:17:35 42° E 23:20:29 10° NNE
Meteor 1-4 Rocket 2.8 23:14:14 10° NNW 23:17:59 65° W 23:19:51 27° S
Cosmos 2237 Rocket 2.4 23:12:34 10° NNW 23:18:14 62° ENE 23:21:31 25° SE
Cosmos 1703 3.2 23:16:40 23° S 23:19:01 90° E 23:22:57 10° N
SL-14 R/B 4.2 23:15:32 10° SSW 23:19:21 48° WNW 23:23:16 10° N
Meteor 2-10 4.2 23:14:43 10° N 23:20:28 88° E 23:24:06 24° S
Cosmos 2242 Rocket 3.9 23:17:01 10° NNW 23:21:27 65° W 23:24:15 22° S
Cosmos 2082 3.9 23:19:48 20° S 23:23:34 53° ESE 23:29:07 10° NNE
Iridium 2 3.6 23:22:19 28° S 23:24:15 87° W 23:28:08 10° N
Terra 1.8 23:22:18 29° SSE 23:24:45 73° ENE 23:29:31 10° N
ATLAS 3B R/B 3.4 23:19:35 10° NNW 23:26:25 47° NE 23:31:15 18° ESE
Cosmos 1937 Rocket 3.5 23:21:29 10° SSW 23:26:38 87° WNW 23:31:52 10° NNE
Lacrosse 4 Rocket 3.1 23:23:36 10° N 23:27:22 27° NE 23:29:44 17° E
Cosmos 1862 Rocket 3.5 23:23:38 10° N 23:27:58 67° E 23:29:43 34° SSE
Spot 4 4.0 23:26:33 30° SE 23:28:53 63° ENE 23:33:42 10° N
Cosmos 2360 Rocket 4.3 23:25:15 10° WNW 23:28:57 18° W 23:32:39 10° SW
Sich 1 4.0 23:25:46 10° SSW 23:30:00 45° WNW 23:34:15 10° N
CARTOSAT-1 3.5 23:28:15 32° SSE 23:30:13 87° ENE 23:34:34 10° NNW
Cosmos 1633 Rocket 4.1 23:29:42 10° SSW 23:33:47 43° WNW 23:37:59 10° N
NOSS 3-1 (C) 4.2 23:30:03 10° SW 23:35:53 56° NW 23:42:26 10° NNE
Cosmos 1626 2.0 23:35:44 42° S 23:36:54 75° E 23:40:39 10° NNE
Cosmos 990 Rocket 3.9 23:33:44 20° SSW 23:37:24 84° ESE 23:42:35 10° NNE
OAO 2 Rocket 4.1 23:37:41 10° SW 23:42:20 32° S 23:42:20 32° S
COSMOS 2455 3.2 23:44:17 10° NNW 23:50:16 59° NE 23:53:21 28° SE
Tiangong 1 2.1 23:47:23 10° WSW 23:49:21 34° WSW 23:49:21 34° WSW
H-2A R/B 2.5 23:48:40 27° S 23:51:32 59° W 23:56:56 10° NNW
Cosmos 1269 Rocket 4.3 23:47:05 10° NNW 23:52:21 60° ENE 23:54:28 35° SE
Cosmos 1933 3.7 23:50:05 10° N 23:54:04 52° ENE 23:54:51 45° ESE
